[[{"header":{"parameterUnit":"m.s-1","parameterCategory":1,"la1":30.2991,"la2":30.254,"lo1":-89.0895,"lo2":-89.0444,"dy":0.0017,"dx":0.0017,"nx":28,"ny":28,"refTime":"2025-04-27T21:00:00:Z","depth":0,"parameterNumber":2,"parameterNumberName":"U-component_of_WINDS"},"data":[0,0,0,0,0,0,0,0,0,0,0,0,0,0,0,0,0,0,0,0,0,0,0,0,0,0,0,0,0,0,0,0,0,0,0,0,0,0,0,0,0,0,0,0,0,0,0,0,0,0,0,0,0,0,0,0,0,0,0.6102,0.6103,0,0.6133,0.6134,0.6134,0.6126,0.6126,0.6125,0.6125,0.6157,0.6159,0.616,0,0,0,0,0,0,0,0,0,0,0,0,0,0.6036,0.6037,0.6102,0.6103,0.6103,0.6133,0.6134,0.6134,0.6127,0.6126,0.6125,0.6124,0.6157,0.6159,0.616,0,0,0,0,0,0,0,0,0,0,0,0,0,0.6066,0.6038,0.6102,0.6103,0.6103,0.6133,0.6134,0.6134,0.6127,0.6126,0.6125,0.6124,0.6156,0.6158,0.616,0.6192,0,0,0.6167,0.6168,0,0,0,0,0,0,0,0,0.6064,0.6068,0.6102,0.6103,0.6103,0.6125,0.6122,0.6154,0.6127,0.6118,0.6125,0.6124,0.6147,0.615,0.6158,0.6194,0.6195,0.6167,0.6169,0.617,0.617,0,0,0,0,0,0,0,0.6062,0.6067,0.6115,0.6103,0.6103,0.6102,0.6105,0.6128,0.6137,0.6118,0.6118,0.6122,0.6147,0.6156,0.6159,0.6196,0.6167,0.6169,0.617,0.6171,0.6258,0.6259,0,0,0,0,0,0,0.6059,0.6065,0.6114,0.6116,0.6081,0.6103,0.6107,0.6119,0.6137,0.6139,0.6123,0.6121,0.6153,0.6156,0.616,0.6198,0.617,0.6172,0.6173,0.6257,0.6258,0.6259,0,0,0,0,0,0,0.6058,0.6064,0.6112,0.609,0.6096,0.6106,0.6119,0.612,0.6129,0.614,0.6142,0.613,0.6152,0.6157,0.6184,0.6199,0.6173,0.6174,0.6256,0.6258,0.6259,0.6274,0,0,0,0,0,0,0.6056,0.6063,0.6076,0.6091,0.6097,0.6136,0.612,0.6121,0.6132,0.6131,0.6147,0.6149,0.6152,0.6181,0.6186,0.6201,0.6176,0.6255,0.6257,0.6258,0.6272,0.6276,0.6279,0,0,0,0,0,0.6054,0.6079,0.6076,0.6082,0.6113,0.6137,0.6141,0.6143,0.6134,0.6146,0.6153,0.6148,0.6196,0.6184,0.619,0.6206,0.6254,0.6256,0.6258,0.6271,0.6275,0.6279,0,0,0,0,0,0,0.6066,0.6081,0.6078,0.6109,0.6122,0.6135,0.6151,0.6148,0.6164,0.6162,0.6165,0.6169,0.6196,0.6204,0.6189,0.6237,0.6224,0.6227,0.6231,0.6235,0.6239,0.6236,0.6178,0,0,0,0,0,0.6072,0.609,0.6102,0.6128,0.6135,0.6142,0.6152,0.6153,0.6167,0.6172,0.6181,0.6195,0.6213,0.6224,0.6242,0.6273,0.6276,0.6287,0.6291,0.6293,0.6296,0.6313,0.6318,0.6267,0.6267,0.6267,0,0,0.6085,0.6096,0.6107,0.6131,0.6141,0.6159,0.6146,0.6167,0.6181,0.6175,0.6201,0.6208,0.6223,0.6253,0.6266,0.626,0.6311,0.6296,0.6298,0.63,0.6316,0.6321,0.6325,0.6268,0.6268,0.6268,0,0,0.6118,0.6128,0.615,0.6161,0.6176,0.618,0.6185,0.62,0.6204,0.623,0.6226,0.6243,0.6274,0.6285,0.6294,0.6331,0.6327,0.6336,0.6354,0.637,0.6374,0.6377,0.639,0.6395,0.6339,0.6339,0.6339,0,0.6133,0.616,0.6162,0.6183,0.6193,0.6189,0.6211,0.6221,0.6241,0.6249,0.6241,0.6279,0.6289,0.6321,0.633,0.6338,0.6344,0.6334,0.6373,0.6377,0.638,0.6392,0.6397,0.634,0.634,0.634,0.634,0,0.6177,0.6196,0.6213,0.6232,0.6244,0.6265,0.627,0.6283,0.6282,0.6287,0.6314,0.6325,0.6345,0.6352,0.6352,0.6384,0.6379,0.6372,0.6359,0.6386,0.6397,0.6402,0.6342,0.6341,0.6341,0.6341,0,0,0.6219,0.6238,0.6244,0.6253,0.6269,0.6284,0.6305,0.6323,0.6333,0.6347,0.6365,0.6391,0.6385,0.6395,0.6396,0.6411,0.6438,0.6402,0.6403,0.6408,0.6473,0.6478,0.6483,0.6436,0.6437,0.6437,0.6472,0,0.6253,0.629,0.6292,0.6326,0.6343,0.6339,0.6357,0.6369,0.6374,0.639,0.6396,0.6414,0.6405,0.6411,0.6425,0.6432,0.6451,0.643,0.6452,0.6453,0.6448,0.6489,0.6494,0.6526,0.6476,0.6477,0.6477,0,0.6298,0.6313,0.6348,0.6361,0.6369,0.6385,0.6402,0.6417,0.643,0.6433,0.6444,0.6443,0.6465,0.6451,0.648,0.6465,0.6475,0.6479,0.6481,0.6483,0.6467,0.6492,0.6536,0.6541,0.6484,0.6484,0.6483,0,0.6325,0.6354,0.6378,0.6385,0.6401,0.6413,0.642,0.6432,0.6443,0.6458,0.6464,0.6482,0.6491,0.6504,0.6507,0.6497,0.6537,0.6523,0.6539,0.6539,0.6548,0.6547,0.6594,0.6554,0.6554,0.6554,0.6554,0,0.6363,0.6384,0.639,0.6405,0.6429,0.6431,0.6455,0.6461,0.6472,0.6488,0.6486,0.6501,0.6505,0.652,0.6523,0.6547,0.6551,0.6554,0.6554,0.6554,0.6554,0.656,0.6558,0.6556,0.6555,0.6555,0.6555,0,0.6397,0.6401,0.6428,0.644,0.6444,0.6461,0.6472,0.6486,0.6491,0.6511,0.6516,0.6524,0.6542,0.6547,0.6569,0.6571,0.6599,0.6597,0.6594,0.6594,0.661,0.6608,0.6662,0.6669,0.6625,0.6626,0.6626,0,0.642,0.6437,0.6451,0.6461,0.6469,0.6486,0.6497,0.6499,0.651,0.6526,0.6539,0.6557,0.6571,0.6601,0.6609,0.6625,0.6624,0.6642,0.6627,0.6625,0.6624,0.6623,0.6624,0.6645,0.6645,0.6645,0.6646,0,0.6462,0.6463,0.6479,0.6495,0.6508,0.6521,0.6533,0.6542,0.6546,0.6559,0.6577,0.6589,0.6611,0.6629,0.6646,0.6653,0.665,0.665,0.6655,0.6655,0.6652,0.6653,0.6602,0.6649,0.6649,0.6649,0.6648,0.6648,0.6491,0.6505,0.6517,0.6534,0.6544,0.6555,0.6569,0.6575,0.6591,0.6609,0.661,0.663,0.6642,0.6664,0.6672,0.6688,0.6683,0.669,0.6691,0.6693,0.6694,0.665,0.6691,0.6691,0.6691,0.6691,0.6691,0,0.6532,0.6539,0.6555,0.6572,0.6585,0.6581,0.6594,0.6606,0.6624,0.6635,0.6649,0.6671,0.6688,0.6696,0.6713,0.6724,0.6723,0.6729,0.6728,0.6729,0.6698,0.6692,0.6729,0.6729,0.6729,0.6729,0.6729,0.6729,0.6555,0.6578,0.6581,0.6609,0.6616,0.6635,0.6643,0.6654,0.6663,0.6686,0.6701,0.6706,0.6716,0.6734,0.6749,0.6751,0.6757,0.6763,0.6765,0.6735,0.6731,0.6728,0.6722,0.6765,0.6765,0.6794,0.6795,0.6795]},{"header":{"parameterUnit":"m.s-1","parameterCategory":1,"la1":30.2991,"la2":30.254,"lo1":-89.0895,"lo2":-89.0444,"dy":0.0017,"dx":0.0017,"nx":28,"ny":28,"refTime":"2025-04-27T21:00:00:Z","depth":0,"parameterNumber":3,"parameterNumberName":"V-component_of_WINDS"},"data":[0,0,0,0,0,0,0,0,0,0,0,0,0,0,0,0,0,0,0,0,0,0,0,0,0,0,0,0,0,0,0,0,0,0,0,0,0,0,0,0,0,0,0,0,0,0,0,0,0,0,0,0,0,0,0,0,0,0,1.6638,1.6638,0,1.6622,1.6622,1.6622,1.6597,1.6597,1.6596,1.6596,1.6579,1.6579,1.6579,0,0,0,0,0,0,0,0,0,0,0,0,0,1.6648,1.6648,1.6638,1.6638,1.6638,1.6622,1.6622,1.6622,1.6597,1.6597,1.6596,1.6596,1.6579,1.6579,1.6579,0,0,0,0,0,0,0,0,0,0,0,0,0,1.6639,1.6648,1.6638,1.6624,1.6622,1.6622,1.6622,1.6622,1.6597,1.6597,1.6596,1.6595,1.6579,1.6579,1.6579,1.6592,0,0,1.6579,1.6579,0,0,0,0,0,0,0,0,1.6639,1.6639,1.6626,1.6625,1.6623,1.6611,1.6619,1.6612,1.6597,1.6607,1.6596,1.6595,1.659,1.6589,1.6588,1.6592,1.6591,1.6579,1.6579,1.6579,1.6579,0,0,0,0,0,0,0,1.664,1.6639,1.6632,1.6626,1.6624,1.6618,1.6616,1.6618,1.6602,1.6606,1.6604,1.6602,1.6589,1.6588,1.6587,1.6591,1.6579,1.6579,1.6579,1.6579,1.6604,1.6604,0,0,0,0,0,0,1.6643,1.664,1.6632,1.6631,1.663,1.6618,1.6616,1.6615,1.6602,1.66,1.6603,1.6601,1.6588,1.6587,1.6587,1.66,1.6579,1.6579,1.6579,1.6603,1.6604,1.6604,0,0,0,0,0,0,1.6643,1.6642,1.6633,1.6635,1.6633,1.6619,1.6618,1.6616,1.6614,1.66,1.6597,1.6604,1.6588,1.6587,1.6591,1.6599,1.6579,1.6579,1.6602,1.6603,1.6604,1.6628,0,0,0,0,0,0,1.6644,1.6643,1.6647,1.6635,1.6633,1.6638,1.6619,1.6616,1.6614,1.6612,1.6601,1.6598,1.6587,1.6591,1.6591,1.6599,1.6579,1.6601,1.6603,1.6604,1.6626,1.663,1.6633,0,0,0,0,0,1.6644,1.6655,1.6648,1.6647,1.6639,1.6638,1.6637,1.6624,1.6615,1.6619,1.6611,1.6599,1.6599,1.6592,1.6591,1.6599,1.6601,1.6602,1.6604,1.6625,1.6629,1.6633,0,0,0,0,0,0,1.6668,1.6653,1.6645,1.6652,1.6647,1.6634,1.6639,1.6629,1.6626,1.6624,1.6608,1.6606,1.6612,1.6606,1.6599,1.6611,1.6598,1.6599,1.6614,1.6618,1.6621,1.6622,1.6579,0,0,0,0,0,1.6674,1.6675,1.6662,1.667,1.6667,1.6654,1.6653,1.6644,1.6637,1.6635,1.6626,1.662,1.6619,1.6618,1.6616,1.6626,1.6623,1.6631,1.6634,1.6637,1.6638,1.6642,1.6645,1.6609,1.6609,1.6609,0,0,1.6687,1.6679,1.668,1.6674,1.6669,1.6669,1.6652,1.6654,1.6654,1.6635,1.6638,1.6632,1.6624,1.6631,1.6634,1.6627,1.6648,1.6639,1.6641,1.6641,1.6644,1.6647,1.665,1.661,1.661,1.661,0,0,1.671,1.6705,1.671,1.6705,1.6697,1.6688,1.669,1.6679,1.6674,1.6677,1.6662,1.6663,1.6661,1.6656,1.6653,1.6675,1.6664,1.6675,1.6691,1.6695,1.6698,1.67,1.6707,1.671,1.6677,1.6677,1.6677,0,1.6727,1.6728,1.6714,1.6717,1.6714,1.6697,1.6703,1.6699,1.669,1.6689,1.6682,1.6679,1.6673,1.6678,1.6683,1.6682,1.6683,1.6676,1.6699,1.6701,1.6703,1.6709,1.6712,1.6678,1.6678,1.6678,1.6678,0,1.6748,1.6749,1.6754,1.6747,1.6745,1.6749,1.6736,1.6736,1.6727,1.6719,1.6723,1.6715,1.6711,1.6712,1.6703,1.6715,1.6711,1.6701,1.6688,1.6708,1.6714,1.6716,1.668,1.668,1.6679,1.6679,0,0,1.6785,1.677,1.6773,1.6769,1.6759,1.6759,1.6763,1.6759,1.6759,1.6754,1.6756,1.6755,1.6746,1.6743,1.6734,1.6737,1.6754,1.6727,1.6727,1.6731,1.6767,1.6773,1.6776,1.6747,1.6748,1.6748,1.6767,0,1.6805,1.681,1.6798,1.6806,1.6806,1.679,1.6793,1.6787,1.678,1.6779,1.6771,1.6771,1.6759,1.6757,1.676,1.6752,1.6761,1.675,1.6748,1.6748,1.6749,1.678,1.6786,1.6805,1.6769,1.677,1.677,0,1.6829,1.6826,1.6833,1.6823,1.6823,1.6825,1.6821,1.682,1.6814,1.6808,1.6805,1.6794,1.6797,1.6784,1.6787,1.678,1.6779,1.6775,1.6775,1.6773,1.676,1.6778,1.681,1.6812,1.6774,1.6773,1.6773,0,1.6854,1.6852,1.6855,1.6853,1.6841,1.6843,1.6839,1.6831,1.683,1.6826,1.6825,1.6821,1.6819,1.6817,1.6805,1.6798,1.6809,1.6796,1.6804,1.6805,1.6806,1.6806,1.6838,1.6808,1.6808,1.6808,1.6808,0,1.6878,1.6882,1.6866,1.6868,1.6873,1.686,1.6866,1.686,1.6853,1.6854,1.6841,1.6842,1.6827,1.6826,1.6818,1.6821,1.682,1.6816,1.6813,1.6816,1.6817,1.6814,1.6812,1.6808,1.6808,1.6808,1.6808,0,1.6906,1.6895,1.6898,1.6887,1.6884,1.6889,1.6879,1.6881,1.6873,1.6874,1.6873,1.6861,1.686,1.6849,1.6845,1.6839,1.6845,1.684,1.6847,1.6845,1.6853,1.6852,1.6884,1.6887,1.6856,1.6856,1.6856,0,1.692,1.6924,1.6913,1.6913,1.6909,1.6908,1.6906,1.6894,1.6893,1.6886,1.6888,1.6886,1.6883,1.6881,1.6872,1.6869,1.6863,1.6875,1.6863,1.6866,1.6862,1.6862,1.6862,1.6877,1.6877,1.6877,1.6878,0,1.6948,1.6942,1.694,1.6937,1.6935,1.6932,1.6927,1.6928,1.6914,1.6913,1.6912,1.691,1.6906,1.6903,1.6898,1.6893,1.6883,1.6882,1.6883,1.6886,1.6889,1.6886,1.6853,1.6881,1.688,1.688,1.688,1.688,1.6969,1.6971,1.6964,1.6962,1.6958,1.6954,1.6955,1.6947,1.6946,1.6941,1.6934,1.6934,1.6927,1.692,1.6916,1.6915,1.6909,1.6911,1.6912,1.6912,1.6913,1.689,1.6914,1.6914,1.6914,1.6914,1.6914,0,1.6994,1.6989,1.6988,1.6982,1.6981,1.6972,1.6967,1.6966,1.6966,1.6961,1.6958,1.6956,1.6954,1.6945,1.6941,1.6942,1.6937,1.6942,1.6941,1.694,1.6919,1.6918,1.6946,1.6946,1.6946,1.6946,1.6946,1.6946,1.7007,1.701,1.7004,1.7005,1.7,1.6999,1.6996,1.6993,1.6989,1.6987,1.6985,1.6979,1.6972,1.6968,1.6966,1.6963,1.6962,1.6968,1.6963,1.6944,1.6941,1.6938,1.6937,1.6968,1.6968,1.6984,1.6984,1.6984]}]]